Location: Dover
(48.8500°N, 53.9833°W)
Time: 07:20:47
(UTC+00:00)

Nadezhda 4 Rocket - Pass Details

Date: 14 November 2025
Orbit: 948 x 991 km, 82.9° (Epoch: 12 December)

Event Time Altitude Azimuth Distance (km) Brightness Sun altitude
Rises 22:14:15 0° 350° (N) 3,711 7.1 -22.6°
Reaches altitude 10° 22:16:47 10° 351° (N) 2,755 6.4 -23.0°
Maximum altitude 22:23:08 90° 60° (ENE) 987 3.9 -24.0°
Drops below altitude 10° 22:29:22 10° 173° (S) 2,709 6.2 -25.0°
Sets 22:31:51 0° 173° (S) 3,645 6.9 -25.5°
